Union Aéronautique de la Côte d'Azur

Union Aéronautique de la Côte d'Azur
UACA
Approuvé A.T.O. EASA – N°FR.ATO.0108

UNION des aéroclubs
Cannes “Ailes d’Azur”, Nice “Côte d’Azur”, Grasse “St Exupery”, ACCA “Francis Séverac”

Un cache-pitot se trouve à bord de chaque avion. Pensez à le mettre en place à la fin de chaque vol !

Avant de quitter l'avion, vérifiez que vous n'emportez pas la checklist

Un vol ne s'entreprend qu'avec un pare-brise parfaitement propre, il en va de votre sécurité, et de celle des autres

Après chaque vol, merci de mettre en place les pares-soleil!


Météo à Cannes:
METAR
LFMD 241400Z AUTO 16009KT 130V190 CAVOK 29/17 Q1017 NOSIG =
LFMD 241400Z 2415/2515 16008KT CAVOK BECMG 2418/2420 VRB03KT BECMG 2507/2509 10010KT

TAF
LFMD 241400Z 2415/2515 16008KT CAVOK BECMG 2418/2420 VRB03KT BECMG 2507/2509 10010KT =

SR / SS: 03:46 / 19:22 UTC (LFMD 2019-06-24)